[Date Prev][Date Next][Thread Prev][Thread Next] - [Date Index][Thread Index][Author Index]

2 LIne ISS Keps 7-22



ISS
1 25544U 98067A   01203.14262529  .00018978  00000-0  23854-3 0  2381
2 25544  51.5672 271.8048 0012061 283.1183 161.4336 15.59636017152548


----
Via the sarex mailing list at AMSAT.ORG courtesy of AMSAT-NA.
To unsubscribe, send "unsubscribe sarex" to Majordomo@amsat.org



AMSAT Top AMSAT Home